Location: Unspecified
(45.3712°N, 0.6436°E)
Time: 06:20:38
(UTC+02:00)

ISS - Pass Details

Date: 22 July 2018
Orbit: 402 x 408 km, 51.6° (Epoch: 23 July)

Event Time Altitude Azimuth Distance (km) Brightness Sun altitude
Rises 05:17:51 0° 290° (WNW) 2,332 -0.2 -10.9°
Reaches altitude 10° 05:20:16 10° 273° (W) 1,468 -1.4 -10.6°
Maximum altitude 05:22:47 20° 223° (SW) 992 -2.5 -10.3°
Drops below altitude 10° 05:25:18 10° 173° (S) 1,462 -1.3 -10.0°
Sets 05:27:42 0° 156° (SSE) 2,318 -0.2 -9.7°
